KC4KQE Weather Reports


Display with metric or nautical units.
time (UTC)temp
F
wind
direction
speed
MPH
gust
MPH
rain 1hr
in
rain 24hr
in
rain mn
in
humidity
%
barometer
mb
20260903051414 88 336 0.0 4.0 0.00 0.00 0.00 42 1013.2
20260903050914 88 5 1.0 2.0 0.00 0.00 0.00 42 1013.2
20260903050414 88 44 0.0 0.0 0.00 0.00 0.00 42 1013.2
20260903045914 88 44 0.0 1.0 0.00 0.00 0.00 43 1013.2
20260903045414 88 44 0.0 0.0 0.00 0.00 0.00 41 1013.2
20260903044914 88 44 0.0 2.0 0.00 0.00 0.00 43 1013.2
20260903044415 88 42 0.0 0.0 0.00 0.00 0.00 39 1013.2
20260903043914 89 42 0.0 2.0 0.00 0.00 0.00 40 1013.2
20260903043414 89 44 1.0 3.0 0.00 0.00 0.00 39 1013.2
20260903042914 89 40 2.0 2.0 0.00 0.00 0.00 40 1013.1
20260903042414 89 40 2.0 2.0 0.00 0.00 0.00 39 1013.1
20260903041914 89 350 1.0 2.0 0.00 0.00 0.00 40 1013.2
20260903041414 89 0 1.0 2.0 0.00 0.00 0.00 40 1013.2
20260903040916 89 0 0.0 0.0 0.00 0.00 0.00 40 1013.2
20260903040414 89 0 0.0 1.0 0.00 0.00 0.00 40 1013.1
20260903035914 89 355 1.0 2.0 0.00 0.00 0.00 39 1013.0
20260903035415 90 346 1.0 3.0 0.00 0.00 0.00 38 1013.0
20260903034914 90 332 2.0 3.0 0.00 0.00 0.00 37 1012.9
20260903034414 91 325 2.0 3.0 0.00 0.00 0.00 36 1012.9
20260903033916 91 324 2.0 4.0 0.00 0.00 0.00 35 1012.8
20260903033414 91 348 2.0 3.0 0.00 0.00 0.00 36 1012.7
20260903032914 91 327 2.0 6.0 0.00 0.00 0.00 36 1012.7
20260903032415 91 315 2.0 4.0 0.00 0.00 0.00 35 1012.6
20260903031914 91 317 1.0 3.0 0.00 0.00 0.00 36 1012.6
20260903031414 91 303 1.0 3.0 0.00 0.00 0.00 36 1012.6
20260903030915 92 306 2.0 3.0 0.00 0.00 0.00 35 1012.6
20260903030415 92 321 1.0 3.0 0.00 0.00 0.00 35 1012.5
20260903025914 92 305 2.0 4.0 0.00 0.00 0.00 35 1012.4
20260903025415 92 294 1.0 3.0 0.00 0.00 0.00 35 1012.3
20260903024915 92 281 1.0 3.0 0.00 0.00 0.00 35 1012.3
20260903024414 92 304 0.0 3.0 0.00 0.00 0.00 36 1012.3
20260903023914 92 316 2.0 3.0 0.00 0.00 0.00 34 1012.2
20260903023414 93 284 2.0 3.0 0.00 0.00 0.00 33 1012.2
20260903022914 93 276 1.0 5.0 0.00 0.00 0.00 33 1012.2
20260903022414 93 246 3.0 4.0 0.00 0.00 0.00 33 1012.2
20260903021914 93 234 4.0 5.0 0.00 0.00 0.00 33 1012.1
20260903021415 93 257 0.0 2.0 0.00 0.00 0.00 33 1012.0
20260903020916 94 254 1.0 2.0 0.00 0.00 0.00 31 1011.9
20260903020415 94 242 2.0 4.0 0.00 0.00 0.00 31 1011.9
20260903015914 94 243 0.0 2.0 0.00 0.00 0.00 31 1011.9
20260903015415 95 237 1.0 3.0 0.00 0.00 0.00 30 1011.9
20260903014914 95 225 1.0 4.0 0.00 0.00 0.00 30 1011.8
20260903014414 95 241 3.0 4.0 0.00 0.00 0.00 29 1011.8
20260903013914 95 262 2.0 5.0 0.00 0.00 0.00 29 1011.7
20260903013415 96 261 4.0 7.0 0.00 0.00 0.00 29 1011.6
20260903012915 96 252 3.0 7.0 0.00 0.00 0.00 29 1011.6
20260903012414 96 225 3.0 5.0 0.00 0.00 0.00 28 1011.6
20260903011914 96 255 5.0 7.0 0.00 0.00 0.00 28 1011.7
20260903011414 96 269 4.0 6.0 0.00 0.00 0.00 28 1011.7
20260903010916 96 238 3.0 4.0 0.00 0.00 0.00 29 1011.7
20260903010415 96 121 0.0 4.0 0.00 0.00 0.00 29 1011.7
20260903005914 96 213 1.0 3.0 0.00 0.00 0.00 27 1011.7
20260903005414 96 197 2.0 5.0 0.00 0.00 0.00 28 1011.7
20260903004915 97 244 2.0 6.0 0.00 0.00 0.00 27 1011.7
20260903004414 97 0 4.0 11.0 0.00 0.00 0.00 27 1011.8
20260903003914 97 269 10.0 11.0 0.00 0.00 0.00 27 1011.8
20260903003414 98 283 4.0 8.0 0.00 0.00 0.00 27 1011.7
20260903002914 98 273 4.0 6.0 0.00 0.00 0.00 27 1011.8
20260903002414 98 255 5.0 16.0 0.00 0.00 0.00 26 1011.8
20260903001914 98 184 3.0 5.0 0.00 0.00 0.00 27 1011.8
20260903001414 98 230 5.0 7.0 0.00 0.00 0.00 27 1011.8
20260903000915 98 230 6.0 9.0 0.00 0.00 0.00 26 1011.8
20260903000414 98 239 5.0 10.0 0.00 0.00 0.00 26 1011.9
20260902235916 98 233 0.0 7.0 0.00 0.00 0.00 27 1011.9
20260902235414 98 279 6.0 10.0 0.00 0.00 0.00 27 1012.0
20260902234914 98 240 5.0 9.0 0.00 0.00 0.00 27 1012.1
20260902234414 98 245 4.0 14.0 0.00 0.00 0.00 26 1012.1
20260902233914 99 296 6.0 9.0 0.00 0.00 0.00 27 1012.2
20260902233414 98 259 4.0 10.0 0.00 0.00 0.00 26 1012.3
20260902232914 99 286 5.0 9.0 0.00 0.00 0.00 27 1012.3
20260902232416 99 279 6.0 11.0 0.00 0.00 0.00 27 1012.3
20260902231914 99 273 3.0 5.0 0.00 0.00 0.00 27 1012.3
20260902231414 99 281 4.0 9.0 0.00 0.00 0.00 27 1012.4
20260902230916 99 258 6.0 13.0 0.00 0.00 0.00 26 1012.6
20260902230416 99 263 11.0 13.0 0.00 0.00 0.00 27 1012.5
20260902225914 99 258 8.0 11.0 0.00 0.00 0.00 27 1012.6
20260902225414 99 273 4.0 11.0 0.00 0.00 0.00 28 1012.6
20260902224914 98 277 7.0 11.0 0.00 0.00 0.00 29 1012.7
20260902224414 97 238 1.0 5.0 0.00 0.00 0.00 29 1012.8
20260902223914 98 250 2.0 8.0 0.00 0.00 0.00 28 1012.9
20260902223414 99 223 6.0 13.0 0.00 0.00 0.00 28 1012.9
20260902222915 99 195 7.0 9.0 0.00 0.00 0.00 30 1012.9
20260902222414 99 192 3.0 9.0 0.00 0.00 0.00 29 1013.0
20260902221914 99 254 3.0 10.0 0.00 0.00 0.00 28 1013.0
20260902221416 99 244 7.0 9.0 0.00 0.00 0.00 29 1013.1
20260902220914 98 288 4.0 9.0 0.00 0.00 0.00 30 1013.1
20260902220416 98 286 2.0 7.0 0.00 0.00 0.00 30 1013.2
20260902215916 98 252 5.0 8.0 0.00 0.00 0.00 29 1013.3
20260902215414 99 277 6.0 13.0 0.00 0.00 0.00 30 1013.3
20260902214914 98 245 9.0 13.0 0.00 0.00 0.00 30 1013.3
20260902214415 98 225 3.0 15.0 0.00 0.00 0.00 30 1013.4
20260902213915 99 285 2.0 9.0 0.00 0.00 0.00 30 1013.4
20260902213414 99 276 5.0 9.0 0.00 0.00 0.00 30 1013.5
20260902212914 99 246 4.0 11.0 0.00 0.00 0.00 30 1013.6
20260902212415 98 271 4.0 10.0 0.00 0.00 0.00 31 1013.6
20260902211916 98 207 7.0 9.0 0.00 0.00 0.00 32 1013.6
20260902211414 98 240 6.0 12.0 0.00 0.00 0.00 32 1013.7
20260902210914 98 228 4.0 11.0 0.00 0.00 0.00 31 1013.8
20260902210415 98 182 0.0 10.0 0.00 0.00 0.00 32 1013.7
20260902205914 98 228 5.0 13.0 0.00 0.00 0.00 32 1013.9
20260902205414 98 221 4.0 10.0 0.00 0.00 0.00 33 1013.9
20260902204914 97 208 9.0 11.0 0.00 0.00 0.00 35 1014.0
20260902204414 96 240 2.0 5.0 0.00 0.00 0.00 35 1014.1
20260902203914 96 124 1.0 9.0 0.00 0.00 0.00 35 1014.2
20260902203416 97 190 4.0 9.0 0.00 0.00 0.00 35 1014.3
20260902202914 95 232 4.0 8.0 0.00 0.00 0.00 37 1014.4
20260902202414 96 182 2.0 6.0 0.00 0.00 0.00 36 1014.5
20260902201914 97 227 3.0 10.0 0.00 0.00 0.00 36 1014.6
20260902201416 97 223 3.0 9.0 0.00 0.00 0.00 37 1014.7
20260902200914 96 201 2.0 10.0 0.00 0.00 0.00 37 1014.8
20260902200414 96 191 6.0 7.0 0.00 0.00 0.00 38 1014.8
20260902195915 95 153 3.0 6.0 0.00 0.00 0.00 39 1014.9
20260902195415 95 186 3.0 9.0 0.00 0.00 0.00 39 1015.0
20260902194914 95 253 7.0 13.0 0.00 0.00 0.00 38 1015.1
20260902194414 96 267 10.0 10.0 0.00 0.00 0.00 38 1015.1
20260902193914 96 240 4.0 6.0 0.00 0.00 0.00 38 1015.2
20260902193414 96 218 3.0 7.0 0.00 0.00 0.00 38 1015.2
20260902192914 95 196 5.0 7.0 0.00 0.00 0.00 38 1015.2
20260902192414 95 216 4.0 10.0 0.00 0.00 0.00 37 1015.3
20260902191914 95 217 3.0 7.0 0.00 0.00 0.00 38 1015.4
20260902191414 94 209 2.0 5.0 0.00 0.00 0.00 41 1015.5
20260902190914 94 163 3.0 5.0 0.00 0.00 0.00 39 1015.5
20260902190414 95 190 3.0 9.0 0.00 0.00 0.00 39 1015.6
20260902185914 95 239 3.0 11.0 0.00 0.00 0.00 39 1015.7
20260902185414 95 244 5.0 12.0 0.00 0.00 0.00 39 1015.7
20260902184916 94 231 6.0 9.0 0.00 0.00 0.00 40 1015.7
20260902184414 94 207 3.0 9.0 0.00 0.00 0.00 40 1015.9
20260902183914 94 212 8.0 10.0 0.00 0.00 0.00 40 1015.9
20260902183414 94 189 7.0 9.0 0.00 0.00 0.00 42 1015.9
20260902182915 94 196 8.0 8.0 0.00 0.00 0.00 42 1016.0
20260902182414 93 141 4.0 4.0 0.00 0.00 0.00 43 1016.1
20260902181914 93 173 0.0 8.0 0.00 0.00 0.00 42 1016.2
20260902181414 93 156 2.0 8.0 0.00 0.00 0.00 41 1016.2
20260902180915 93 185 7.0 8.0 0.00 0.00 0.00 41 1016.3
20260902180414 93 226 1.0 6.0 0.00 0.00 0.00 41 1016.3
20260902175916 93 229 6.0 8.0 0.00 0.00 0.00 41 1016.4
20260902175414 92 227 5.0 5.0 0.00 0.00 0.00 42 1016.4
20260902174914 92 284 1.0 6.0 0.00 0.00 0.00 42 1016.4
20260902174414 92 237 6.0 9.0 0.00 0.00 0.00 42 1016.5
20260902173914 92 217 7.0 8.0 0.00 0.00 0.00 42 1016.4
20260902173414 92 198 1.0 8.0 0.00 0.00 0.00 43 1016.5
20260902172914 92 202 1.0 9.0 0.00 0.00 0.00 44 1016.5
20260902172414 91 192 7.0 7.0 0.00 0.00 0.00 45 1016.5
20260902171914 91 192 6.0 6.0 0.00 0.00 0.00 46 1016.5
20260902171414 91 161 1.0 11.0 0.00 0.00 0.00 45 1016.5
20260902170914 91 159 11.0 9.0 0.00 0.00 0.00 47 1016.5
20260902170415 90 140 2.0 7.0 0.00 0.00 0.00 48 1016.5
20260902165914 90 103 3.0 5.0 0.00 0.00 0.00 47 1016.4
20260902165414 90 173 1.0 7.0 0.00 0.00 0.00 48 1016.5
20260902164914 90 191 4.0 9.0 0.00 0.00 0.00 49 1016.5
20260902164414 89 101 2.0 9.0 0.00 0.00 0.00 50 1016.5
20260902163914 89 140 5.0 9.0 0.00 0.00 0.00 50 1016.4
20260902163414 89 150 2.0 7.0 0.00 0.00 0.00 50 1016.4
20260902162914 89 138 3.0 7.0 0.00 0.00 0.00 52 1016.4
20260902162414 88 166 2.0 8.0 0.00 0.00 0.00 52 1016.4
20260902161914 88 134 4.0 10.0 0.00 0.00 0.00 51 1016.4
20260902161414 88 105 10.0 10.0 0.00 0.00 0.00 53 1016.5
20260902160914 87 129 3.0 9.0 0.00 0.00 0.00 54 1016.4
20260902160414 87 109 3.0 8.0 0.00 0.00 0.00 53 1016.4
20260902155915 87 130 3.0 8.0 0.00 0.00 0.00 53 1016.5
20260902155415 87 159 3.0 5.0 0.00 0.00 0.00 54 1016.5
20260902154914 87 134 4.0 6.0 0.00 0.00 0.00 55 1016.5
20260902154414 87 118 1.0 8.0 0.00 0.00 0.00 55 1016.4
20260902153914 86 130 2.0 7.0 0.00 0.00 0.00 55 1016.3
20260902153414 86 168 6.0 7.0 0.00 0.00 0.00 55 1016.3
20260902152914 86 130 2.0 6.0 0.00 0.00 0.00 56 1016.4
20260902152415 86 105 2.0 8.0 0.00 0.00 0.00 55 1016.3
20260902151914 86 198 3.0 7.0 0.00 0.00 0.00 56 1016.3
20260902151420 86 142 5.0 6.0 0.00 0.00 0.00 55 1016.3
20260902150914 85 157 5.0 8.0 0.00 0.00 0.00 55 1016.3
20260902150414 85 178 4.0 10.0 0.00 0.00 0.00 55 1016.2
20260902145914 85 140 5.0 8.0 0.00 0.00 0.00 55 1016.1
20260902145414 85 163 4.0 5.0 0.00 0.00 0.00 55 1016.1
20260902144914 85 148 1.0 5.0 0.00 0.00 0.00 55 1016.1
20260902144415 85 135 1.0 5.0 0.00 0.00 0.00 55 1016.1
20260902143914 84 150 4.0 5.0 0.00 0.00 0.00 56 1016.1
20260902143414 84 123 3.0 7.0 0.00 0.00 0.00 56 1016.1
20260902142914 84 121 4.0 5.0 0.00 0.00 0.00 57 1016.0
20260902142414 83 146 2.0 5.0 0.00 0.00 0.00 58 1015.9
20260902141914 83 124 1.0 5.0 0.00 0.00 0.00 58 1015.8
20260902141414 83 130 0.0 4.0 0.00 0.00 0.00 59 1015.7
20260902140914 82 124 1.0 3.0 0.00 0.00 0.00 60 1015.6
20260902140415 82 136 3.0 5.0 0.00 0.00 0.00 61 1015.6
20260902135914 81 148 2.0 6.0 0.00 0.00 0.00 62 1015.6
20260902135414 81 164 3.0 8.0 0.00 0.00 0.00 63 1015.5
20260902134915 80 135 1.0 5.0 0.00 0.00 0.00 64 1015.4
20260902134414 79 179 3.0 3.0 0.00 0.00 0.00 67 1015.5
20260902133914 79 146 1.0 2.0 0.00 0.00 0.00 67 1015.5
20260902133414 79 116 0.0 2.0 0.00 0.00 0.00 68 1015.4
20260902132915 79 116 1.0 2.0 0.00 0.00 0.00 68 1015.4
20260902132414 79 116 1.0 2.0 0.00 0.00 0.00 67 1015.3
20260902131914 79 116 0.0 3.0 0.00 0.00 0.00 66 1015.3
20260902131414 79 122 1.0 2.0 0.00 0.00 0.00 67 1015.2
20260902130914 78 130 2.0 3.0 0.00 0.00 0.00 70 1015.1
20260902130416 78 132 1.0 3.0 0.00 0.00 0.00 73 1015.1
20260902125914 77 154 1.0 2.0 0.00 0.00 0.00 77 1015.1
20260902125415 77 154 0.0 0.0 0.00 0.00 0.00 77 1015.1
20260902124914 77 154 0.0 0.0 0.00 0.00 0.00 77 1015.0
20260902124414 77 154 0.0 0.0 0.00 0.00 0.00 75 1014.9
20260902123915 77 154 0.0 0.0 0.00 0.00 0.00 74 1014.9
20260902123414 77 154 0.0 1.0 0.00 0.00 0.00 74 1014.9
20260902122914 78 158 1.0 1.0 0.00 0.00 0.00 72 1015.0
20260902122415 78 158 0.0 1.0 0.00 0.00 0.00 72 1015.0
20260902121914 78 158 1.0 3.0 0.00 0.00 0.00 71 1014.9
20260902121414 78 158 0.0 0.0 0.00 0.00 0.00 71 1014.8
20260902120914 78 158 0.0 0.0 0.00 0.00 0.00 70 1014.7
20260902120415 78 158 0.0 0.0 0.00 0.00 0.00 71 1014.7
20260902115914 78 89 0.0 0.0 0.00 0.00 0.00 73 1014.7
20260902115414 79 89 0.0 0.0 0.00 0.00 0.00 70 1014.7
20260902114914 79 89 0.0 0.0 0.00 0.00 0.00 70 1014.7
20260902114414 79 89 0.0 0.0 0.00 0.00 0.00 69 1014.7
20260902113915 79 89 0.0 0.0 0.00 0.00 0.00 68 1014.8
20260902113414 79 89 0.0 0.0 0.00 0.00 0.00 68 1014.7
20260902112914 79 89 0.0 0.0 0.00 0.00 0.00 66 1014.7
20260902112414 79 89 0.0 0.0 0.00 0.00 0.00 66 1014.7
20260902111914 79 89 0.0 2.0 0.00 0.00 0.00 69 1014.7
20260902111414 79 89 0.0 1.0 0.00 0.00 0.00 66 1014.6
20260902110914 80 89 1.0 2.0 0.00 0.00 0.00 67 1014.6
20260902110414 80 101 0.0 0.0 0.00 0.00 0.00 65 1014.6
20260902105914 80 101 0.0 1.0 0.00 0.00 0.00 65 1014.6
20260902105414 81 101 1.0 2.0 0.00 0.00 0.00 63 1014.7
20260902104914 81 101 1.0 1.0 0.00 0.00 0.00 62 1014.7
20260902104416 81 101 0.0 0.0 0.00 0.00 0.00 59 1014.7
20260902103914 82 101 0.0 1.0 0.00 0.00 0.00 59 1014.7
20260902103414 82 101 1.0 4.0 0.00 0.00 0.00 57 1014.7
20260902102914 82 114 3.0 5.0 0.00 0.00 0.00 57 1014.6
20260902102414 82 102 1.0 5.0 0.00 0.00 0.00 58 1014.7
20260902101914 82 111 4.0 6.0 0.00 0.00 0.00 58 1014.7
20260902101414 82 107 2.0 4.0 0.00 0.00 0.00 59 1014.7
20260902100914 82 126 2.0 3.0 0.00 0.00 0.00 60 1014.7
20260902100414 81 140 1.0 2.0 0.00 0.00 0.00 63 1014.7
20260902095914 81 136 1.0 2.0 0.00 0.00 0.00 63 1014.7
20260902095414 81 136 0.0 2.0 0.00 0.00 0.00 65 1014.7
20260902094914 81 136 0.0 1.0 0.00 0.00 0.00 64 1014.7
20260902094414 81 136 0.0 1.0 0.00 0.00 0.00 64 1014.7
20260902093914 81 136 1.0 1.0 0.00 0.00 0.00 64 1014.7
20260902093414 80 139 0.0 2.0 0.00 0.00 0.00 67 1014.7
20260902092915 80 136 0.0 2.0 0.00 0.00 0.00 68 1014.7
20260902092416 80 136 1.0 1.0 0.00 0.00 0.00 69 1014.6
20260902091914 80 223 0.0 0.0 0.00 0.00 0.00 68 1014.6
20260902091415 81 223 0.0 0.0 0.00 0.00 0.00 67 1014.6
20260902090914 81 223 0.0 1.0 0.00 0.00 0.00 65 1014.6
20260902090414 81 223 1.0 2.0 0.00 0.00 0.00 64 1014.6
20260902085919 82 223 0.0 1.0 0.00 0.00 0.00 63 1014.5
20260902085414 82 223 0.0 2.0 0.00 0.00 0.00 62 1014.6
20260902084920 82 98 0.0 0.0 0.00 0.00 0.00 60 1014.6
20260902084415 83 98 0.0 1.0 0.00 0.00 0.00 59 1014.6
20260902083919 83 98 1.0 1.0 0.00 0.00 0.00 59 1014.7
20260902083414 83 98 1.0 2.0 0.00 0.00 0.00 58 1014.7
20260902082914 83 98 0.0 1.0 0.00 0.00 0.00 58 1014.7
20260902082414 83 98 0.0 1.0 0.00 0.00 0.00 57 1014.7
20260902081914 84 98 1.0 3.0 0.00 0.00 0.00 56 1014.7
20260902081414 84 92 2.0 3.0 0.00 0.00 0.00 55 1014.7
20260902080914 84 145 0.0 3.0 0.00 0.00 0.00 56 1014.7
20260902080414 83 119 2.0 2.0 0.00 0.00 0.00 57 1014.7
20260902075915 83 140 0.0 3.0 0.00 0.00 0.00 57 1014.7
20260902075414 84 123 3.0 4.0 0.00 0.00 0.00 57 1014.6
20260902074914 84 115 3.0 3.0 0.00 0.00 0.00 56 1014.6
20260902074414 84 142 0.0 0.0 0.00 0.00 0.00 54 1014.6
20260902073915 84 142 0.0 0.0 0.00 0.00 0.00 53 1014.7
20260902073415 85 142 0.0 0.0 0.00 0.00 0.00 53 1014.6
20260902072914 85 92 0.0 2.0 0.00 0.00 0.00 53 1014.5
20260902072414 85 91 0.0 0.0 0.00 0.00 0.00 53 1014.3
20260902071914 85 91 0.0 1.0 0.00 0.00 0.00 52 1014.3
20260902071414 86 91 0.0 3.0 0.00 0.00 0.00 49 1014.3
20260902070914 86 87 1.0 3.0 0.00 0.00 0.00 49 1014.3
20260902070414 86 74 2.0 3.0 0.00 0.00 0.00 49 1014.3
20260902065914 86 101 0.0 2.0 0.00 0.00 0.00 50 1014.3
20260902065414 86 78 2.0 4.0 0.00 0.00 0.00 50 1014.4
20260902064915 85 74 2.0 3.0 0.00 0.00 0.00 52 1014.4
20260902064416 85 107 0.0 2.0 0.00 0.00 0.00 52 1014.4
20260902063914 85 121 2.0 3.0 0.00 0.00 0.00 52 1014.5
20260902063414 85 146 0.0 2.0 0.00 0.00 0.00 51 1014.5
20260902062914 86 150 0.0 2.0 0.00 0.00 0.00 51 1014.5
20260902062414 86 135 1.0 2.0 0.00 0.00 0.00 50 1014.5
20260902061914 86 94 1.0 6.0 0.00 0.00 0.00 50 1014.5
20260902061415 86 109 2.0 6.0 0.00 0.00 0.00 50 1014.5
20260902060914 86 101 5.0 5.0 0.00 0.00 0.00 50 1014.4
20260902060414 86 108 4.0 5.0 0.00 0.00 0.00 50 1014.4
20260902055914 86 112 2.0 4.0 0.00 0.00 0.00 51 1014.4
20260902055414 86 127 3.0 4.0 0.00 0.00 0.00 52 1014.5
20260902054914 85 111 3.0 3.0 0.00 0.00 0.00 53 1014.5
20260902054414 86 136 0.0 2.0 0.00 0.00 0.00 52 1014.6
20260902053915 86 121 2.0 4.0 0.00 0.00 0.00 52 1014.5
20260902053414 86 140 1.0 3.0 0.00 0.00 0.00 52 1014.4
20260902052914 85 115 2.0 3.0 0.00 0.00 0.00 53 1014.5
20260902052416 85 107 3.0 4.0 0.00 0.00 0.00 53 1014.4
20260902051916 85 123 3.0 4.0 0.00 0.00 0.00 54 1014.4